Location: Leganes-MADRID
(40.3441°N, 3.7527°W)
Time: 21:41:22
(UTC+02:00)

Hubble Space Telescope - Visible Passes

Search period start: 17 July 2018 00:00
Search period end: 27 July 2018 00:00
Orbit: 537 x 541 km, 28.5° (Epoch: 17 July)

Date Brightness Start Highest point End Pass type
(mag) Time Alt. Az. Time Alt. Az. Time Alt. Az.
17 Jul 3.0 05:20:18 11° SSE 05:20:18 11° SSE 05:21:30 10° SSE visible
18 Jul 3.0 05:10:26 12° SSE 05:10:26 12° SSE 05:11:30 10° SE visible
19 Jul 3.1 05:00:38 12° SSE 05:00:38 12° SSE 05:01:19 10° SE visible
20 Jul 3.2 04:50:55 10° SE 04:50:55 10° SE 04:51:01 10° SE visible
20 Jul 2.7 06:26:55 10° SW 06:29:09 14° S 06:31:22 10° SSE visible
21 Jul 2.8 06:16:42 10° SW 06:18:40 13° S 06:20:38 10° SSE visible
22 Jul 2.8 06:07:09 11° SSW 06:08:10 12° SSW 06:09:44 10° S visible
23 Jul 2.9 05:57:50 10° SSW 05:57:50 10° SSW 05:58:28 10° S visible
